Regional Weather Roundup
Issued by NWS Little Rock, AR

Home | Current Version | Previous Version | Text Only | Print | Product List | Glossary On
Versions: 1 2 3 4 5 6 7 8 9 10 11 12 13 14 15 16 17 18 19 20 21 22 23 24 25 26 27 28 29 30 31 32 33 34 35 36 37 38 39 40 41 42 43 44 45 46 47 48 49 50
000
ASUS44 KLZK 180405
RWRLZK

WEATHER ROUNDUP FOR ARKANSAS
NATIONAL WEATHER SERVICE LITTLE ROCK AR
1100 PM CDT FRI APR 17 2015

NOTE: "FAIR" INDICATES FEW OR NO CLOUDS BELOW 12,000 FEET WITH NO
SIGNIFICANT WEATHER AND/OR OBSTRUCTIONS TO VISIBILITY.

ARZ001-003-010-029-180500-
NORTHWEST ARKANSAS

CITY           SKY/WX    TMP DP  RH WIND       PRES   REMARKS
FAYETTEVILLE   CLOUDY    62  60  93 CALM      29.98F
FORT SMITH     CLOUDY    70  62  76 NE5       29.96R
HARRISON       CLOUDY    62  60  93 SE7       30.01F
BENTONVILLE    CLOUDY    64  59  82 CALM      29.98F
ROGERS         CLOUDY    63  61  93 SE5       29.98F
SILOAM SPGS    CLOUDY    64  55  72 E3        29.99F
HIGHFILL       CLOUDY    63  58  83 CALM      29.97F
$$

ARZ004-005-016-180500-
NORTH CENTRAL ARKANSAS

CITY           SKY/WX    TMP DP  RH WIND       PRES   REMARKS
BATESVILLE     CLOUDY    63  61  94 CALM      30.01F
FLIPPIN        CLOUDY    64 N/A N/A CALM      29.99F
MTN HOME       CLOUDY    64  63  96 SE3       30.01S
$$

ARZ040-041-180500-
WEST CENTRAL ARKANSAS

CITY           SKY/WX    TMP DP  RH WIND       PRES   REMARKS
MENA           CLOUDY    66  64  94 CALM      29.99R
MOUNT IDA      CLOUDY    66  64  93 CALM      29.97R
$$

ARZ009-017-025-026-028-180500-
NORTHEAST ARKANSAS

CITY           SKY/WX    TMP DP  RH WIND       PRES   REMARKS
CORNING          N/A     64  64 100 SE6       30.02F
JONESBORO      MOCLDY    64  63  96 E3        30.02F
NEWPORT        MOCLDY    68  66  93 E7        30.02F
WALNUT RIDGE   PTCLDY    66  61  82 SE6       30.02S
BLYTHEVILLE    FAIR      63  63 100 CALM      30.02F
$$

ARZ022-023-033-042-044-180500-
CENTRAL ARKANSAS

CITY           SKY/WX    TMP DP  RH WIND       PRES   REMARKS
LITTLE ROCK    CLOUDY    68  62  81 E6        30.00R
N LITTLE ROCK  CLOUDY    66  64  92 E6        30.00R
JACKSONVILLE   CLOUDY    65  64  96 NE1       30.00R
SEARCY         CLOUDY    60  59  96 CALM      30.02S
HOT SPRINGS    CLOUDY    67  62  84 E7        29.98S
RUSSELLVILLE   CLOUDY    68  60  75 E3        29.99R
CLINTON        FAIR      59  59 100 CALM      30.02S FOG
$$

ARZ036-180500-
EAST ARKANSAS

CITY           SKY/WX    TMP DP  RH WIND       PRES   REMARKS
WEST MEMPHIS   PTCLDY    64  64 100 SE6       30.00S
$$

ARZ050-053-066-070-073-180500-
SOUTHWEST ARKANSAS

CITY           SKY/WX    TMP DP  RH WIND       PRES   REMARKS
ARKADELPHIA    FAIR      70  67  90 CALM      29.98S
CAMDEN         CLOUDY    64  61  88 CALM      29.97S
TEXARKANA      CLOUDY    70  65  84 S3        29.97R
EL DORADO      CLOUDY    67  63  87 E3        29.98R
DE QUEEN       CLOUDY    68  64  87 NE3       29.95R
$$

ARZ056-057-069-180500-
SOUTHEAST ARKANSAS

CITY           SKY/WX    TMP DP  RH WIND       PRES   REMARKS
PINE BLUFF     CLOUDY    67  62  84 E7        29.99S
STUTTGART      CLOUDY    68  61  77 E7        30.01S
MONTICELLO     CLOUDY    65  62  90 NE6       29.97F

$$




USA.gov is the U.S. government's official web portal to all federal, state and local government web resources and services.